694  
ASUS44 KHUN 051210  
RWRHUN  
 
WEATHER ROUNDUP FOR THE TENNESSEE VALLEY  
NATIONAL WEATHER SERVICE HUNTSVILLE AL  
700 AM CDT TUE JUL 05 2022  
 
ALZ001>004-051300-  
NORTHWEST ALABAMA  
 
CITY SKY/WX TMP DP RH WIND PRES REMARKS
 
BANKHEAD NF N/A 72 72 99 CALM N/A  
SHOALS AIRPORT SUNNY 79 75 87 CALM 30.09R  
6HR MIN TEMP: 74; 6HR MAX TEMP: 79;  
 

 
 
ALZ005>007-016-051300-  
NORTH CENTRAL ALABAMA  
 
CITY SKY/WX TMP DP RH WIND PRES REMARKS
 
CULLMAN AG STN N/A 73 N/A N/A CALM N/A  
DECATUR AP SUNNY 77 74 90 SE5 30.11R  
6HR MIN TEMP: 74; 6HR MAX TEMP: 80;  
 
HUNTSVILLE AP MOSUNNY 78 74 87 S3 30.11R  
6HR MIN TEMP: 76; 6HR MAX TEMP: 81;  
 
HUN NWS/UAH N/A 79 75 86 S1 N/A  
MERIDIANVILLE SUNNY 78 73 85 SE3 30.12R  
VINEMONT AP FAIR 75 75 100 CALM 30.14R  

 
 
ALZ008>010-051300-  
NORTHEAST ALABAMA  
 
CITY SKY/WX TMP DP RH WIND PRES REMARKS
 
ALBERTVILLE MOSUNNY 73 72 94 SW3 30.13S  
FORT PAYNE SUNNY 74 72 92 CALM 30.12R  
SCOTTSBORO AP SUNNY 77 77 100 CALM 30.12R  

 
 
TNZ076-096-097-051300-  
SOUTHEASTERN MIDDLE TENNESSEE  
 
CITY SKY/WX TMP DP RH WIND PRES REMARKS
 
FAYETTEVILLE SUNNY 77 75 94 S5 30.13R  
TULLAHOMA SUNNY 77 73 88 CALM 30.11R  
WINCHESTER SUNNY 77 73 88 CALM 30.12R  

 
   
..SURROUNDING SITES
 
 
 
CITY SKY/WX TMP DP RH WIND PRES REMARKS
 
ATLANTA MOSUNNY 75 73 93 W3 30.13R FOG  
ANNISTON PTSUNNY 76 74 93 SW3 30.12R  
BIRMINGHAM PTSUNNY 77 73 87 SW5 30.14R  
CHATTANOOGA MOSUNNY 79 71 76 CALM 30.13R  
CORINTH CLOUDY 77 75 94 SE3 30.07R  
DALTON SUNNY 77 72 83 CALM 30.15R  
GADSDEN CLOUDY 75 75 100 CALM 30.13R FOG  
GOLDEN TRNGL MOSUNNY 76 74 93 CALM 30.09R  
HALEYVILLE FAIR 74 73 97 CALM 30.14R  
JACKSON TN SUNNY 79 77 94 SW3 30.06R  
LAWRENCEBURG MOSUNNY 77 73 88 CALM 30.10R FOG  
LEWISBURG SUNNY 79 75 89 SW3 30.09R  
MEMPHIS MOSUNNY 82 75 79 SW6 30.05R  
MURFREESBORO SUNNY 81 73 78 S3 30.07R  
NASHVILLE MOSUNNY 79 72 79 S3 30.09R  
OXFORD MS SUNNY 77 73 88 CALM 30.08R  
ROME SUNNY 78 71 79 CALM 30.12R  
SAVANNAH MOSUNNY 79 75 89 CALM 30.07R  
SELMER PTSUNNY 77 75 94 CALM 30.07R  
TUPELO CLOUDY 80 74 81 S5 30.08R  
TUSCALOOSA PTSUNNY 76 73 91 CALM 30.10R  

 
 
 
 
CLICK HERE TO GO TO PREVIOUS BULLETINS.

The Nexlab AL Page
The Nexlab TN Page Main Text Page